Torna al catalogo

STARLINK-30247

AttivoComunicazioniVLEO
NORAD 57644·PAYLOAD·🇺🇸 United States

Lanciato Aug 17, 2023 da Cape Canaveral Space Force Station

Loading…

Prossimi Passaggi (prossime 24 ore)

TLE

AggiornatoSource: CelesTrak SupGP

Epoca: Sep 14, 2026, 21:26 UTC

1 57644C 23122N   26257.89354167  .00009545  00000+0  34576-3 0  2578
2 57644  43.0005 103.7644 0001309 262.2523 178.2067 15.27568849    17

Traccia STARLINK-30247 in tempo reale con AllMySat

Download on the App Store